Orlando, FL

9:11 AM EST on February 07, 2016 (GMT -0500)
Orlando International

Weather History for KMCO - October, 2012

Change the Weather History Date:

Thursday, October 25, 2012

  Actual Average Record
Temperature  
Mean Temperature 77 °F 73 °F  
Max Temperature 83 °F 83 °F 96 °F (1919)
Min Temperature 71 °F 64 °F 38 °F (1937)
Degree Days  
Heating Degree Days 0 0  
Month to date heating degree days 0 0  
Since 1 July heating degree days 0 0  
Cooling Degree Days 12 9  
Month to date cooling degree days 327 284  
Year to date cooling degree days 3417 3160  
Growing Degree Days 26 (Base 50)    
Moisture  
Dew Point 70 °F    
Average Humidity 83    
Maximum Humidity 100    
Minimum Humidity 65    
Precipitation  
Precipitation 0.07 in 0.07 in 1.72 in (1921)
Month to date precipitation 1.99 2.87  
Year to date precipitation 39.35 45.54  
Sea Level Pressure  
Sea Level Pressure 29.87 in    
Wind  
Wind Speed 12 mph (NNE)    
Max Wind Speed 23 mph    
Max Gust Speed 28 mph    
Visibility 10 miles    
Events Rain    
T = Trace of Precipitation, MM = Missing Value Source: NWS Daily Summary

Daily Weather History Graph

Daily Weather History Graph

Search for Another Location

Airport or City:

Trip Planner

Search our weather history database for the weather conditions in past years. The results will help you decide how hot, cold, wet, or windy it might be!

Date:

Astronomy

Oct. 25, 2012 Rise Set
Actual Time 7:32 AM EDT 6:45 PM EDT
Civil Twilight 7:08 AM EDT 7:09 PM EDT
Nautical Twilight 6:40 AM EDT 7:37 PM EDT
Astronomical Twilight 6:13 AM EDT 8:04 PM EDT
Moon 4:15 PM EDT (10/25) 3:45 AM EDT (10/25)
Length of Visible Light 12h 01m
Length of Day
11h 13m
Waxing Gibbous, 84% of the Moon is Illuminated
Oct 25
Waxing Gibbous
Oct 29
Full
Nov 6
Last Quarter
Nov 13
New
Nov 20
First Quarter

Hourly Weather History & Observations

Time (EDT) Temp. Heat Index Dew Point Humidity Pressure Visibility Wind Dir Wind Speed Gust Speed Precip Events Conditions
12:53 AM 72.0 °F - 66.9 °F 84% 29.94 in 10.0 mi NNE 5.8 mph - N/A   Scattered Clouds
1:53 AM 73.0 °F - 68.0 °F 84% 29.92 in 10.0 mi NNE 8.1 mph - N/A   Mostly Cloudy
2:53 AM 73.9 °F - 69.1 °F 85% 29.90 in 10.0 mi NE 8.1 mph - N/A   Mostly Cloudy
3:53 AM 73.9 °F - 68.0 °F 82% 29.88 in 10.0 mi NE 6.9 mph - N/A   Mostly Cloudy
4:53 AM 73.9 °F - 69.1 °F 85% 29.88 in 10.0 mi NNE 10.4 mph - N/A   Mostly Cloudy
5:53 AM 73.0 °F - 71.1 °F 93% 29.88 in 10.0 mi North 11.5 mph - 0.00 in Rain Light Rain
6:53 AM 73.0 °F - 71.1 °F 93% 29.89 in 10.0 mi NNE 9.2 mph - 0.00 in   Overcast
7:53 AM 73.9 °F - 70.0 °F 87% 29.89 in 10.0 mi NNE 9.2 mph - N/A   Mostly Cloudy
8:53 AM 75.0 °F - 71.1 °F 87% 29.91 in 10.0 mi NNE 6.9 mph - N/A   Mostly Cloudy
9:53 AM 78.1 °F - 72.0 °F 81% 29.91 in 10.0 mi NE 9.2 mph - N/A   Mostly Cloudy
10:53 AM 81.0 °F 84.9 °F 71.1 °F 72% 29.91 in 10.0 mi ENE 17.3 mph - N/A   Overcast
11:53 AM 82.0 °F 85.5 °F 69.1 °F 65% 29.91 in 10.0 mi ENE 13.8 mph 24.2 mph N/A   Overcast
12:53 PM 82.9 °F 87.0 °F 70.0 °F 65% 29.87 in 10.0 mi NE 17.3 mph 23.0 mph N/A   Overcast
1:53 PM 82.0 °F 85.5 °F 69.1 °F 65% 29.85 in 10.0 mi NE 18.4 mph - N/A   Overcast
2:53 PM 80.1 °F 83.6 °F 71.1 °F 74% 29.83 in 10.0 mi NE 18.4 mph 23.0 mph 0.00 in   Overcast
3:17 PM 77.0 °F - 71.6 °F 83% 29.83 in 10.0 mi NE 16.1 mph 26.5 mph 0.00 in Rain Light Rain
3:27 PM 77.0 °F - 71.6 °F 83% 29.83 in 9.0 mi NE 19.6 mph - 0.00 in Rain Light Rain
3:53 PM 79.0 °F - 69.1 °F 72% 29.83 in 10.0 mi NE 20.7 mph 25.3 mph 0.00 in Rain Light Rain
4:53 PM 73.0 °F - 73.0 °F 100% 29.84 in 7.0 mi North 12.7 mph - 0.07 in Rain Light Rain
5:41 PM 73.4 °F - 71.6 °F 94% 29.84 in 10.0 mi North 10.4 mph - 0.00 in   Overcast
5:53 PM 75.0 °F - 72.0 °F 90% 29.83 in 10.0 mi NNE 13.8 mph - 0.00 in   Overcast
6:53 PM 75.0 °F - 72.0 °F 90% 29.84 in 10.0 mi NNE 9.2 mph - N/A   Overcast
7:53 PM 75.0 °F - 70.0 °F 84% 29.85 in 10.0 mi NNE 11.5 mph - N/A   Overcast
8:19 PM 75.2 °F - 71.6 °F 89% 29.85 in 10.0 mi NNE 9.2 mph - 0.00 in   Overcast
8:26 PM 73.4 °F - 71.6 °F 94% 29.84 in 10.0 mi NE 10.4 mph - 0.00 in   Overcast
8:53 PM 75.0 °F - 70.0 °F 84% 29.84 in 10.0 mi NNE 12.7 mph - 0.00 in   Overcast
9:53 PM 75.0 °F - 70.0 °F 84% 29.84 in 10.0 mi NNE 11.5 mph - N/A   Overcast
10:53 PM 75.9 °F - 70.0 °F 82% 29.83 in 10.0 mi NNE 11.5 mph - N/A   Overcast
11:53 PM 75.9 °F - 68.0 °F 76% 29.82 in 10.0 mi NNE 10.4 mph - N/A   Overcast